Weather Roundup
Issued by NWS Chicago, IL

Home | Current Version | Previous Version | Graphics & Text | Print | Product List | Glossary On
Versions: 1 2 3 4 5 6 7 8 9 10 11 12 13 14 15 16 17 18 19 20 21 22 23 24 25 26 27 28 29 30 31 32 33 34 35 36 37 38 39 40 41 42 43 44 45 46 47 48 49 50
000
NZUS59 KLOT 041321
HRRLOT

CHICAGO AREA WEATHER ROUNDUP
NATIONAL WEATHER SERVICE CHICAGO/ROMEOVILLE IL
800 AM CDT FRI SEP 04 2015

NOTE: "FAIR" INDICATES FEW OR NO CLOUDS BELOW 12,000 FEET WITH NO
SIGNIFICANT WEATHER AND/OR OBSTRUCTIONS TO VISIBILITY.

* THESE STATIONS ARE NOT UNDER NWS QUALITY CONTROL. THEY ALSO MAY NOT
  REPORT WEATHER SUCH AS PRECIPITATION OR FOG.

ILZ005-006-012>014-019>023-041400-
NORTHEAST ILLINOIS

CITY           SKY/WX    TMP DP  RH WIND       PRES   REMARKS
OHARE          MOSUNNY   71  66  84 E7        30.01R
MIDWAY         MOSUNNY   75  67  76 E6        30.00R
AURORA         SUNNY     71  68  90 CALM      30.02R FOG
LANSING*       MOSUNNY   73  68  85 E5        30.02R
JOLIET*        SUNNY     74  70  87 CALM      30.01R
WAUKEGAN       CLOUDY    64  64 100 NE5       30.02R FOG
DUPAGE AIRPORT MOSUNNY   71  67  87 CALM      30.01R
WHEELING       CLOUDY    69  65  86 NE6       30.03R
KANKAKEE*      SUNNY     71  68  93 SE3       30.02S FOG
MORRIS*        SUNNY     70  68  93 CALM      30.00R FOG
LEWIS AIRPORT* SUNNY     71  68  89 CALM      30.01S
NORTHERLY IS     N/A     69  66  90 N5          N/A
$$

WIZ051-052-058>065-066-070>072-041400-
SOUTHEAST WISCONSIN

CITY           SKY/WX    TMP DP  RH WIND       PRES   REMARKS
MILWAUKEE      CLOUDY    67  65  93 NW3       30.02R
KENOSHA*       CLOUDY    67  64  90 NE6       30.02S FOG
RACINE*        CLOUDY    66  64  93 N7        30.03R FOG
BURLINGTON     MOSUNNY   65  65  97 CALM      30.02R FOG
WAUKESHA       CLOUDY    63  63 100 CALM      30.04R FOG
WEST BEND      CLOUDY    64  63  94 CALM      30.02S
$$

INZ001>003-010>013-019-020-041400-
NORTHWEST INDIANA

CITY           SKY/WX    TMP DP  RH WIND       PRES   REMARKS
GARY*          PTSUNNY   73  68  83 CALM      30.02R
MICHIGAN CITY* NOT AVBL
RENSSELAER*    NOT AVBL
VALPARAISO     PTSUNNY   70  68  93 NE3       30.03R FOG
$$

LMZ740>746-041400-
SOUTHERN LAKE MICHIGAN

STATION/POSITION TIME  SKY/WX   TEMP WIND        PRES    VSBY
                                AIR  DIR/SP/G
                 (UTC)          (F)  (DEG/KT/KT) (MB)    (MI)
HARRISON CRIB    1300            69  360/  5/  6   N/A
BURNHAM HARBOR   1300            70  340/  4/  7   N/A
CALUMET HARBOR   1300            71  360/  4/  5   N/A
BURNS HARBOR     NOT AVBL
MICHIGAN CITY    1300            71  360/  1/  1   N/A
$$

ABBREVIATIONS USED IN REMARKS
   TC - TEMPERATURE IN CELSIUS
  WCI - WIND CHILL INDEX
   HX - HEAT INDEX
  VSB - VISIBILITY
$$



USA.gov is the U.S. government's official web portal to all federal, state and local government web resources and services.